When you browse on this site, cookies collect data to enhance your experience and personalize the content and advertising you see.
Visit our Privacy Policy to learn more. By continuing to use the site, you agree to this use of cookies and data.
  • Em Portugal
  • Lista de países
  • Para 7 dias
  • Temperatura da água
  • Mapas de satélite
  • Mapa do tempo
  • Widgets de tempo
  • user-avatar
    Iniciar Sessão

    Previsão horária em Solno

    Hoje, 25 Maio, Sábado

    Tempo Temperatura Precipitação Vento Pressão Humidade
    00:00 +13°C° 0 mm 2 m/s 751 mmHg 91%
    01:00 +12°C° 0 mm 2 m/s 751 mmHg 94%
    02:00 +10°C° 0 mm 2 m/s 751 mmHg 95%
    03:00 +9°C° 0 mm 2 m/s 751 mmHg 96%
    04:00 +9°C° 0 mm 2 m/s 751 mmHg 97%
    05:00 +10°C° 0 mm 3 m/s 752 mmHg 92%
    06:00 +11°C° 0 mm 4 m/s 752 mmHg 86%
    07:00 +11°C° 0 mm 4 m/s 752 mmHg 80%
    08:00 +11°C° 0 mm 4 m/s 752 mmHg 78%
    09:00 +11°C° 0 mm 4 m/s 753 mmHg 76%
    10:00 +10°C° 0 mm 5 m/s 753 mmHg 74%
    11:00 +10°C° 0 mm 5 m/s 753 mmHg 74%
    12:00 +11°C° 0 mm 4 m/s 753 mmHg 74%
    13:00 +12°C° 0 mm 4 m/s 753 mmHg 73%
    14:00 +12°C° 0 mm 4 m/s 753 mmHg 73%
    15:00 +12°C° 0 mm 4 m/s 753 mmHg 73%
    16:00 +12°C° 0 mm 4 m/s 753 mmHg 73%
    17:00 +12°C° 0 mm 4 m/s 753 mmHg 75%
    18:00 +11°C° 0 mm 4 m/s 753 mmHg 76%
    19:00 +11°C° 0 mm 4 m/s 753 mmHg 77%
    20:00 +10°C° 0 mm 4 m/s 753 mmHg 82%
    21:00 +9°C° 0 mm 3 m/s 753 mmHg 87%
    22:00 +9°C° 0 mm 3 m/s 753 mmHg 91%
    23:00 +8°C° 0 mm 4 m/s 753 mmHg 89%

    Amanhã, 26 Maio, Domingo

    Tempo Temperatura Precipitação Vento Pressão Humidade
    00:00 +10°C° 0 mm 4 m/s 753 mmHg 87%
    01:00 +10°C° 0 mm 4 m/s 753 mmHg 86%
    02:00 +10°C° 0 mm 4 m/s 752 mmHg 87%
    03:00 +10°C° 0 mm 4 m/s 752 mmHg 88%
    04:00 +10°C° 0 mm 3 m/s 752 mmHg 89%
    05:00 +10°C° 0 mm 4 m/s 752 mmHg 85%
    06:00 +10°C° 0 mm 5 m/s 752 mmHg 82%
    07:00 +10°C° 0 mm 6 m/s 752 mmHg 79%
    08:00 +11°C° 0 mm 6 m/s 752 mmHg 75%
    09:00 +13°C° 0 mm 6 m/s 752 mmHg 71%
    10:00 +14°C° 0 mm 6 m/s 751 mmHg 67%
    11:00 +14°C° 0 mm 6 m/s 751 mmHg 66%
    12:00 +15°C° 0 mm 6 m/s 751 mmHg 66%
    13:00 +15°C° 0 mm 6 m/s 751 mmHg 66%
    14:00 +15°C° 0.1 mm 6 m/s 750 mmHg 69%
    15:00 +15°C° 0.1 mm 5 m/s 750 mmHg 71%
    16:00 +14°C° 0.1 mm 5 m/s 750 mmHg 74%
    17:00 +14°C° 0.2 mm 5 m/s 749 mmHg 80%
    18:00 +13°C° 0.2 mm 5 m/s 749 mmHg 85%
    19:00 +13°C° 0.2 mm 5 m/s 749 mmHg 91%
    20:00 +13°C° 0.1 mm 4 m/s 749 mmHg 92%
    21:00 +13°C° 0.1 mm 4 m/s 749 mmHg 93%
    22:00 +13°C° 0.1 mm 4 m/s 749 mmHg 95%
    23:00 +13°C° 0.2 mm 4 m/s 749 mmHg 95%

    Depois de amanhã, 27 Maio, Segunda-feira

    Tempo Temperatura Precipitação Vento Pressão Humidade
    00:00 +13°C° 0.2 mm 4 m/s 749 mmHg 95%
    01:00 +13°C° 0.2 mm 4 m/s 748 mmHg 96%
    02:00 +13°C° 1.3 mm 5 m/s 748 mmHg 95%
    03:00 +14°C° 1.3 mm 5 m/s 747 mmHg 95%
    04:00 +14°C° 1.3 mm 6 m/s 747 mmHg 94%
    05:00 +14°C° 2 mm 6 m/s 747 mmHg 95%
    06:00 +14°C° 2 mm 5 m/s 747 mmHg 95%
    07:00 +14°C° 2 mm 5 m/s 747 mmHg 96%
    08:00 +15°C° 0.5 mm 5 m/s 747 mmHg 95%
    09:00 +15°C° 0.5 mm 5 m/s 747 mmHg 93%
    10:00 +15°C° 0.5 mm 5 m/s 748 mmHg 92%
    11:00 +15°C° 0.4 mm 5 m/s 748 mmHg 89%
    12:00 +15°C° 0.4 mm 5 m/s 748 mmHg 86%
    13:00 +15°C° 0.4 mm 6 m/s 749 mmHg 83%
    14:00 +15°C° 0 mm 5 m/s 749 mmHg 80%
    15:00 +15°C° 0 mm 5 m/s 749 mmHg 78%
    16:00 +15°C° 0 mm 4 m/s 749 mmHg 75%
    17:00 +14°C° 0 mm 3 m/s 749 mmHg 78%
    18:00 +14°C° 0 mm 3 m/s 749 mmHg 80%
    19:00 +14°C° 0 mm 2 m/s 750 mmHg 83%
    20:00 +13°C° 0 mm 1 m/s 750 mmHg 86%
    21:00 +12°C° 0 mm 1 m/s 750 mmHg 90%
    22:00 +10°C° 0 mm 1 m/s 750 mmHg 93%
    23:00 +10°C° 0 mm 1 m/s 750 mmHg 94%

    28 Maio, Terça-feira

    Tempo Temperatura Precipitação Vento Pressão Humidade
    00:00 +10°C° 0 mm 1 m/s 750 mmHg 94%
    01:00 +10°C° 0 mm 1 m/s 750 mmHg 94%
    02:00 +10°C° 0 mm 1 m/s 750 mmHg 95%
    03:00 +10°C° 0 mm 1 m/s 750 mmHg 95%
    04:00 +9°C° 0 mm 1 m/s 750 mmHg 95%
    05:00 +11°C° 0 mm 1 m/s 750 mmHg 90%
    06:00 +12°C° 0 mm 1 m/s 750 mmHg 86%
    07:00 +12°C° 0 mm 0 m/s 750 mmHg 81%
    08:00 +14°C° 0 mm 1 m/s 750 mmHg 80%
    09:00 +14°C° 0 mm 1 m/s 750 mmHg 78%
    10:00 +15°C° 0 mm 1 m/s 750 mmHg 76%
    11:00 +15°C° 0.2 mm 1 m/s 750 mmHg 76%
    12:00 +15°C° 0.2 mm 2 m/s 750 mmHg 76%
    13:00 +16°C° 0.2 mm 2 m/s 750 mmHg 76%
    14:00 +15°C° 0.2 mm 2 m/s 750 mmHg 78%
    15:00 +14°C° 0.2 mm 3 m/s 750 mmHg 80%
    16:00 +13°C° 0.2 mm 3 m/s 749 mmHg 81%
    17:00 +12°C° 0.2 mm 3 m/s 750 mmHg 85%
    18:00 +12°C° 0.2 mm 2 m/s 750 mmHg 88%
    19:00 +10°C° 0.2 mm 2 m/s 750 mmHg 91%
    20:00 +10°C° 0.2 mm 2 m/s 750 mmHg 92%
    21:00 +9°C° 0.2 mm 2 m/s 750 mmHg 93%
    22:00 +9°C° 0.2 mm 2 m/s 750 mmHg 94%
    23:00 +9°C° 0 mm 2 m/s 750 mmHg 93%

    29 Maio, Quarta-feira

    Tempo Temperatura Precipitação Vento Pressão Humidade
    00:00 +9°C° 0 mm 2 m/s 750 mmHg 92%
    01:00 +8°C° 0 mm 2 m/s 751 mmHg 92%
    02:00 +8°C° 0 mm 2 m/s 751 mmHg 92%
    03:00 +8°C° 0 mm 2 m/s 751 mmHg 93%
    04:00 +8°C° 0 mm 2 m/s 751 mmHg 94%
    05:00 +9°C° 0 mm 3 m/s 752 mmHg 89%
    06:00 +10°C° 0 mm 4 m/s 752 mmHg 84%
    07:00 +11°C° 0 mm 4 m/s 752 mmHg 79%
    08:00 +12°C° 0 mm 4 m/s 753 mmHg 73%
    09:00 +13°C° 0 mm 5 m/s 753 mmHg 67%
    10:00 +13°C° 0 mm 5 m/s 754 mmHg 60%
    11:00 +14°C° 0 mm 5 m/s 754 mmHg 58%
    12:00 +14°C° 0 mm 5 m/s 755 mmHg 56%
    13:00 +14°C° 0 mm 6 m/s 755 mmHg 54%
    14:00 +13°C° 0 mm 5 m/s 755 mmHg 55%
    15:00 +13°C° 0 mm 5 m/s 755 mmHg 57%
    16:00 +12°C° 0 mm 5 m/s 756 mmHg 59%
    17:00 +10°C° 0 mm 5 m/s 756 mmHg 62%
    18:00 +11°C° 0 mm 4 m/s 756 mmHg 65%
    19:00 +10°C° 0 mm 4 m/s 757 mmHg 68%
    20:00 +8°C° 0 mm 4 m/s 757 mmHg 73%
    21:00 +8°C° 0 mm 3 m/s 758 mmHg 77%
    22:00 +5°C° 0 mm 3 m/s 758 mmHg 82%
    23:00 +5°C° 0 mm 3 m/s 759 mmHg 84%

    30 Maio, Quinta-feira

    Tempo Temperatura Precipitação Vento Pressão Humidade
    00:00 +6°C° 0 mm 2 m/s 759 mmHg 87%
    01:00 +5°C° 0 mm 2 m/s 759 mmHg 89%
    02:00 +5°C° 0 mm 2 m/s 759 mmHg 90%
    03:00 +5°C° 0 mm 2 m/s 760 mmHg 90%
    04:00 +5°C° 0 mm 2 m/s 760 mmHg 91%
    05:00 +7°C° 0 mm 2 m/s 760 mmHg 84%
    06:00 +9°C° 0 mm 2 m/s 761 mmHg 77%
    07:00 +12°C° 0 mm 2 m/s 761 mmHg 70%
    08:00 +13°C° 0 mm 2 m/s 761 mmHg 64%
    09:00 +14°C° 0 mm 2 m/s 761 mmHg 58%
    10:00 +15°C° 0 mm 2 m/s 761 mmHg 53%
    11:00 +16°C° 0 mm 3 m/s 761 mmHg 49%
    12:00 +17°C° 0 mm 3 m/s 760 mmHg 46%
    13:00 +18°C° 0 mm 3 m/s 760 mmHg 43%
    14:00 +18°C° 0 mm 3 m/s 760 mmHg 43%
    15:00 +18°C° 0 mm 3 m/s 759 mmHg 43%
    16:00 +18°C° 0 mm 3 m/s 758 mmHg 44%
    17:00 +17°C° 0 mm 3 m/s 758 mmHg 51%
    18:00 +17°C° 0 mm 3 m/s 758 mmHg 57%
    19:00 +16°C° 0 mm 2 m/s 757 mmHg 64%
    20:00 +14°C° 0 mm 3 m/s 757 mmHg 65%
    21:00 +13°C° 0 mm 4 m/s 757 mmHg 65%
    22:00 +12°C° 0 mm 5 m/s 756 mmHg 65%
    23:00 +12°C° 0 mm 5 m/s 756 mmHg 64%
    Mostrar mais